Home > Weather > Winder > Past weeks

Flag for USA Past Weather in Winder, Georgia, USA — Yesterday and Last 2 Weeks

Now
82 °F

Sunny.


Feels Like: 86 °F
Forecast: 71 / 92 °F
Wind: No wind

Location: Winder-Barrow Airport

Current Time: Jun 29, 2016 at 10:45:14 AM

Latest Report: Jun 29, 2016 at 10:15 AM


Visibility: 10 mi

Pressure: 30.03 "Hg

Humidity: 66%

Dew Point: 70 °F

Location of WinderLocation

Past Weather in Winder — Graph

°F

Winder Temperature Yesterday

Maximum temperature yesterday: 86 °F (at 12:35 PM)
Minimum temperature yesterday: 72 °F (at 12:55 AM)
Average temperature yesterday: 76 °F

High & Low Weather Summary for the Past Weeks

 TemperatureHumidityPressure
High100 °F (Jun 25, 4:35 PM)94% (Jun 15, 6:35 AM)30.41 "Hg (Jun 15, 6:35 AM)
Low61 °F (Jun 20, 4:55 AM)16% (Jun 25, 4:35 PM)29.81 "Hg (Jun 17, 4:35 PM)
Average82 °F56%30.09 "Hg
* Reported Jun 14 9:15 AM — Jun 29 9:15 AM, Winder, Weather by CustomWeather, © 2016

Note: Actual official high and low records may vary slightly from our data, if they occured in-between our weather recording intervals... More about our weather records

Advertising

Winder Weather History for the Previous 24 Hours

Scroll right to see more
 ConditionsComfort  
Time TempWeatherWind HumidityBarometerVisibility
9:15 AM
Wed, Jun 29
79 °FSunny.No wind79%30.03 "Hg10 mi
8:55 AM79 °FSunny.No wind79%30.03 "Hg10 mi
8:35 AM77 °FSunny.No wind79%30.03 "Hg10 mi
8:15 AM75 °FSunny.No wind83%30.03 "Hg10 mi
7:55 AM73 °FSunny.No wind89%30.03 "Hg10 mi
7:35 AM72 °FSunny.No wind94%30.02 "Hg7 mi
7:15 AM70 °FClear.No wind94%30.03 "Hg7 mi
6:55 AM70 °FClear.No wind88%30.02 "Hg7 mi
6:35 AM70 °FFog.No wind94%30.02 "Hg2 mi
6:15 AM70 °FClear.No wind88%30.00 "Hg7 mi
5:55 AM70 °FFog.No wind94%30.00 "Hg5 mi
5:35 AM70 °FFog.No wind94%30.01 "Hg5 mi
5:15 AM70 °FFog.No wind94%30.00 "Hg4 mi
4:35 AM70 °FFog.No wind94%30.00 "Hg5 mi
4:15 AM70 °FFog.No wind94%30.00 "Hg5 mi
3:55 AM70 °FClear.No wind94%30.00 "Hg7 mi
3:35 AM70 °FFog.No wind94%30.00 "Hg5 mi
3:15 AM70 °FClear.No wind94%30.00 "Hg7 mi
2:55 AM70 °FFog.No wind94%30.00 "Hg4 mi
2:35 AM72 °FFog.No wind88%30.01 "Hg4 mi
2:15 AM72 °FClear.No wind88%30.02 "Hg7 mi
1:55 AM72 °FClear.No wind88%30.02 "Hg7 mi
1:35 AM72 °FClear.No wind94%30.02 "Hg7 mi
1:15 AM72 °FClear.No wind94%30.02 "Hg7 mi
12:50 AM72 °FFog.No wind94%30.03 "Hg5 mi
12:35 AM72 °FClear.No wind94%30.02 "Hg10 mi
12:15 AM72 °FClear.No wind94%30.03 "Hg7 mi
11:55 PM
Tue, Jun 28
73 °FClear.No wind89%30.03 "Hg7 mi
11:35 PM73 °FClear.No wind89%30.03 "Hg10 mi
11:15 PM73 °FClear.No wind94%30.03 "Hg10 mi
10:55 PM73 °FClear.No wind94%30.04 "Hg10 mi
10:35 PM75 °FClear.No wind89%30.04 "Hg7 mi
10:15 PM75 °FClear.No wind89%30.04 "Hg7 mi
9:55 PM75 °FClear.No wind89%30.04 "Hg10 mi
9:35 PM75 °FSunny.No wind89%30.04 "Hg10 mi
9:15 PM77 °FSunny.No wind83%30.03 "Hg10 mi
8:55 PM77 °FSunny.No wind83%30.03 "Hg10 mi
8:35 PM77 °FSunny.No wind83%30.03 "Hg10 mi
8:15 PM77 °FSunny.No wind83%30.02 "Hg10 mi
7:55 PM77 °FSunny.No wind83%30.02 "Hg10 mi
7:35 PM77 °FSunny.No wind83%30.01 "Hg10 mi
7:15 PM79 °FSunny.No wind79%30.00 "Hg10 mi
6:55 PM77 °FThundershowers. Sunny.No wind89%30.00 "Hg10 mi
6:35 PM77 °FSunny.No wind83%30.00 "Hg10 mi
6:15 PM77 °FSunny.No wind83%30.00 "Hg10 mi
5:55 PM77 °FScattered clouds.No wind89%30.01 "Hg10 mi
5:35 PM77 °FLight rain. Broken clouds.No wind83%30.01 "Hg10 mi
5:15 PM75 °FThundershowers. Scattered clouds.No wind89%30.02 "Hg10 mi
4:55 PM75 °FThunderstorms. More clouds than sun.No wind89%30.02 "Hg7 mi
4:35 PM75 °FThunderstorms. Overcast.No wind89%30.02 "Hg10 mi
4:15 PM75 °FLight rain. Overcast.No wind83%30.02 "Hg4 mi
3:55 PM75 °FThunderstorms. Partly sunny.No wind89%30.03 "Hg7 mi
3:35 PM75 °FThunderstorms. Mostly cloudy.3 mph89%30.03 "Hg10 mi
3:15 PM77 °FThunderstorms. Broken clouds.No wind83%30.04 "Hg10 mi
2:55 PM75 °FThunderstorms. Broken clouds.No wind89%30.05 "Hg10 mi
2:35 PM75 °FStrong thunderstorms. More clouds than sun.5 mph83%30.05 "Hg2 mi
2:15 PM79 °FThunderstorms. Cloudy.13 mph79%30.05 "Hg10 mi
1:55 PM82 °FThunderstorms. Cloudy.3 mph70%30.04 "Hg10 mi
1:35 PM84 °FThunderstorms. Mostly cloudy.3 mph62%30.05 "Hg10 mi
1:15 PM86 °FMostly cloudy.No wind59%30.05 "Hg10 mi
12:55 PM86 °FScattered clouds.No wind59%30.05 "Hg10 mi
12:35 PM86 °FScattered clouds.No wind59%30.05 "Hg10 mi
12:15 PM84 °FSunny.No wind62%30.06 "Hg10 mi
11:55 AM82 °FSunny.No wind66%30.06 "Hg10 mi
11:35 AM82 °FScattered clouds.No wind66%30.06 "Hg10 mi
11:15 AM81 °FSunny.No wind74%30.06 "Hg10 mi
10:55 AM79 °FScattered clouds.No wind79%30.06 "Hg10 mi
10:35 AM77 °FOvercast.No wind79%30.06 "Hg10 mi
10:15 AM77 °FOvercast.No wind83%30.06 "Hg10 mi
Weather by CustomWeather, © 2016

See weather overviewHow to use our weather pages